CHARLESTOWN/NEWCAST current weather conditions

sailwx.info

Wind from 100 at 13 knots

Visibility: greater than 5.4 NM

Last reported at 2019-Jun-20 00:00 UTC.
Time now 2019-Jun-20 03:25 UTC

Location: N 17°12' W 062°35'.
View on Google Maps.

See reports from other nearby stations

  
Tides and Currents Weather Stations Pressure Air Temp Water Temp Dewpoint Dewpoint Depression Visibility Wind Speed Wind Dir Waves Ship Positions
date/time (UTC)wind fromknots sea level pressurealtimeterstation pressurevisibilityair tempwater tempwave heightnotes
2019-Jun-20 00:00 100 13 5.4
2019-Jun-19 23:00 090 13 5.4
2019-Jun-19 22:00 100 13 5.4
2019-Jun-19 21:00 090 14 5.4
2019-Jun-19 20:00 100 14 5.4 Haze.
2019-Jun-19 19:00 090 14 5.4
2019-Jun-19 18:00 100 15 5.4
2019-Jun-19 17:00 100 17 5.4
2019-Jun-19 16:00 070 12 5.4
2019-Jun-19 15:00 090 17 5.4
2019-Jun-19 14:00 100 15 5.4
2019-Jun-19 13:00 100 12 5.4
2019-Jun-19 11:00 090 15 5.4
2019-Jun-19 10:00 100 14 5.4
2019-Jun-18 23:00 090 15 5.4 Showers in the vicinity.
2019-Jun-18 22:00 080 13 5.4 Showers in the vicinity.
2019-Jun-18 21:00 080 17 5.4 Showers in the vicinity.
2019-Jun-18 20:00 090 17 5.4
2019-Jun-18 19:00 080 17 5.4 Showers in the vicinity.
2019-Jun-18 18:00 090 18 5.4 Showers in the vicinity.
2019-Jun-18 16:00 100 6 5.4
2019-Jun-18 15:00 120 9 5.4
2019-Jun-18 14:00 100 7 5.4
2019-Jun-18 13:00 100 9 5.4
2019-Jun-18 11:00 100 11 5.4